Location: Newark
(12.4436°N, 0.6167°W)
Time: 15:41:23
(UTC+00:00)

Vanguard 1 - Pass Details

Date: 13 December 2019
Orbit: 651 x 3832 km, 34.2° (Epoch: 18 January)

Event Time Altitude Azimuth Distance (km) Brightness Sun altitude
Rises 23:24:47 0° 215° (SW) 5,301 14.0 -76.9°
Enters shadow 23:26:11 - 213° (SSW) 4,995 13.8 -77.0°
Reaches altitude 10° 23:27:51 10° 209° (SSW) 4,655 - -77.3°
Maximum altitude 23:41:47 52° 136° (SE) 3,600 - -78.7°
Exits shadow 00:02:22 12° 68° (ENE) 6,756 14.2 -79.2°
Drops below altitude 10° 00:03:17 10° 67° (ENE) 6,924 14.3 -79.2°
Sets 00:09:02 0° 63° (ENE) 7,959 14.7 -78.9°
